ONEWEB-0101

Last updated on April 25, 2021, 12:02 a.m. UTC

1 48049U 21025H   21114.58336806 -.01119361  00000-0 -66014-1 0  9995
2 48049  87.4019 339.4171 0009388 137.4596 270.9731 15.14418455  1780
UTC
Height (km)
Latitude
Longitude
Inclination
Orbital Period
UTC large
Height (km)
Speed (km/s)
/
Latitude / Longitude
Inclination (degrees)
Orbital Period (minutes)
Azimuth
Elevation
Range (km)
Doppler Factor
iOS Compass Heading
iOS Angle

Next 30 passes for location: Hong Kong

Rise time Rise Azimuth (degrees) Set time Set Azimuth (degrees) Duration Max altitude (degrees)

No matching passes for this satellites